www.pogodaiklimat.ru

Погода и климат >> Архив погоды >> Азербайджан >> Курдамир


ПОГОДА в Курдамире

  • Прогноз погоды в Курдамире
  • Монитор погоды в Курдамире

АРХИВ ПОГОДЫ в Курдамире

Время (UTC), дата Ветер
(напр.,м/с)
 
Видим.   Явления Облачность Т
(С)
Тd
(С)
f
(%)
Тe
(С)
Тes
(С)
Комфортность P
(гПа)
Po
(гПа)
Тmin
(С)
Tmax
(С)
R
(мм)
R24
(мм)
S
(см)
18 18.08 ЮВ 2 20 км ясно +25.8 +13.8 47 +28 +28 жарко 1009.7 1009.2 +37.9
00 19.08 СЗ 1 20 км ясно +20.6 +14.4 68 +24 +24 комфорт 1011.1 1010.6
06 19.08 З 1 20 км ясно +24.9 +18.8 69 +30 +42 душно 1014.1 1013.6 +19.9
12 19.08 Ю 3 20 км ясно +37.1 +7.1 16 +35 +42 очень
жарко
1012.4 1011.9
18 19.08 ЮВ 2 20 км ясно +27.0 +13.5 43 +29 +29 жарко 1013.9 1013.4 +37.6
00 20.08 СВ 1 20 км ясно +20.2 +15.0 72 +24 +24 комфорт 1014.9 1014.4
06 20.08 СЗ 4 20 км ясно +31.2 +10.7 28 +31 +38 жарко 1016.6 1016.1 +20.1
12 20.08 СЗ 4 20 км ясно +38.8 +6.5 14 +36 +42 очень
жарко
1013.6 1013.1
18 20.08 ЮВ 2 20 км ясно +26.8 +17.6 57 +31 +31 душно 1014.7 1014.2 +39.9
00 21.08 СЗ 1 20 км ясно +21.1 +16.9 77 +25 +25 комфорт 1014.4 1013.9
06 21.08 З 2 20 км ясно +26.4 +20.2 69 +33 +43 очень
душно
1015.5 1015.0 +20.7
12 21.08 ЮВ 4 20 км ясно +37.3 +12.0 22 +37 +43 очень
жарко
1011.5 1011.0
18 21.08 ЮВ 2 20 км ясно +26.8 +12.5 41 +28 +28 жарко 1011.7 1011.2 +38.2
00 22.08 ЮВ 1 20 км ясно +22.1 +12.8 56 +25 +25 комфорт 1011.2 1010.7
06 22.08 штиль 0 20 км ясно +29.5 +18.9 53 +35 +49 очень
душно
1011.9 1011.4 +20.3
12 22.08 В 3 20 км ясно +37.4 +12.9 23 +37 +44 очень
жарко
1008.8 1008.3
18 22.08 ЮВ 2 20 км ясно +27.8 +12.6 39 +29 +29 жарко 1009.8 1009.3 +38.4
00 23.08 З 2 20 км ясно +22.4 +17.2 72 +27 +27 душно 1010.6 1010.1
06 23.08 З 3 20 км ясно +28.9 +19.7 58 +35 +43 очень
душно
1012.0 1011.5 +21.4
12 23.08 Ю 3 20 км 4/0
[Ac trans]
+38.9 +12.4 21 +39 +44 очень
жарко
1009.2 1008.7
18 23.08 Ю 1 20 км ясно +27.7 +16.0 49 +31 +31 душно 1010.2 1009.7 +39.8
00 24.08 ЮВ 2 20 км 4/3 600 м
[Sc Ac trans]
+23.6 +18.2 72 +28 +28 душно 1010.2 1009.7
06 24.08 В 1 20 км 6/0
[Ac trans]
+30.1 +20.2 55 +37 +44 очень
душно
1012.6 1012.1 +22.2
12 24.08 Ю 5 20 км 8/0
[Ac trans Ci fib]
+39.6 +10.4 17 +38 +41 очень
жарко
1009.9 1009.4
18 24.08 ЮВ 2 20 км ясно +29.2 +11.1 33 +30 +30 жарко 1011.5 1011.0 +40.8
00 25.08 СЗ 2 20 км ясно +21.4 +12.0 55 +24 +24 комфорт 1011.4 1010.9
06 25.08 штиль 0 20 км 6/6 600 м
[Cu med, cong]
+30.5 +18.1 48 +35 +40 очень
душно
1012.7 1012.2 +21.3
12 25.08 Ю 2 20 км 6/0
[Ci ing]
+36.9 +12.0 22 +36 +44 очень
жарко
1010.2 1009.7

 

Местоположение метеостанции Курдамир (Азербайджан): широта 40.33 долгота 48.17 высота над уровнем моря 4 м.

В архиве по умолчанию представлена погода в Курдамире за последнюю неделю. Архивные данные за месяц целиком и за предыдущие месяцы, начиная с января 2011 года, Вы можете получить, выбрав интересующий диапазон дат из раскрывающегося списка и нажав кнопку "Ввод!".


*Определитесь, кто Вы:
робот инопланетянин человек

Внимание! Время в таблицах - всемирное. Для получения местного времени необходимо прибавить поправку, которая равна 4 ч.

Смотрите также архив погоды в соседних городах и на ближайших метеорологических станциях:

Погода в Геокчае (Азербайджан) (50 км)
Погода в Шемахе (Азербайджан) (51 км)
Погода в Маразе (Азербайджан) (68 км)
Погода в Беылагане (Азербайджан) (72 км)
Погода в Габале (Азербайджан) (77 км)
Погода в Парсабаде (Иран) (79 км)
Погода в Барде (Азербайджан) (88 км)
Погода в Евлахе (Азербайджан) (92 км)
Погода в Алате (Азербайджан) (112 км)
Погода в Губе (Азербайджан) (119 км)

Пояснения к столбцам:

Ветер - указаны скорость ветра в м/с - средняя за 10 мин, порывы в срок и между сроками (в фигурных скобках) и направление, откуда дует ветер: С - северный, СВ - северо-восточный, В - восточный, ЮВ - юго-восточный, Ю - южный, ЮЗ - юго-западный, З - западный, СЗ - северо-западный.
Видимость - горизонтальная дальность видимости в метрах или километрах. При видимости от 1 до 10 км при отсутствии осадков обычно наблюдается дымка, при ухудшении видимости до 1 км и менее - туман. В сухую погоду видимость может ухудшаться дымом, пылью или мглою.
Явления - указаны атмосферные явления, наблюдавшиеся в срок или в последний час перед сроком; фигурными скобками обозначены явления, наблюдавшиеся между сроками (за 1-3 часа до срока); квадратными скобками обозначены град или гололедные отложения с указанием их диаметра в мм.
Облачность - указаны через наклонную черту общая и нижняя облачность в баллах и высота нижней границы облаков в метрах; квадратными скобками обозначены формы облаков: Ci - перистые, Cs - перисто-слоистые, Cc - перисто-кучевые, Ac - высококучевые, As - высокослоистые, Sc - слоисто-кучевые, Ns - слоисто-дождевые, Cu - кучевые, Cb - кучево-дождевые. Подробнее классификацию облаков см. в Атласе облаков (PDF).
T - Температура воздуха - температура, измеренная на высоте 2 м над землей.
Td - Температура точки росы - температура, при понижении до которой содержащийся в воздухе водяной пар достигнет насыщения.
f - Относительная влажность воздуха - влажноcть воздуха, измеренная на высоте 2 м над землей.
Te - Эффективная температура - температура, которую ощущает одетый по сезону человек в тени. Характеристика душности погоды. При расчете учитывается влияние влажности воздуха и скорости ветра на теплоощущения человека.
Tes - Эффективная температура на солнце - температура, которую ощущает человек, с поправкой на солнечный нагрев. Характеристика знойности погоды. Зависит от высоты солнца над горизонтом, облачности и скорости ветра. Ночью, в пасмурную погоду, а также при ветре 12 м/с и более поправка равна нулю.
P - Атмосферное давление - приведенное к уровню моря атмосферное давление.
Po - Атмосферное давление - измеренное на уровне метеостанции атмосферное давление.
Tmin - Минимальная температура - минимум температуры воздуха на высоте 2 м над землей.
Tmax - Максимальная температура - максимум температуры воздуха на высоте 2 м над землей.
R - Количество осадков - Количество выпавших осадков за период времени, мм. При наведении курсора мыши на число - период времени, за который выпало указанное количество осадков.
R24 - Количество осадков - Количество выпавших осадков за 24 часа, мм.
S - Снежный покров - Высота снежного покрова, см. При наведении курсора мыши на число - состояние снежного покрова и степень покрытия местности в баллах.